KC2EXG-9 Weather Reports


time (UTC)temp
F
wind
direction
speed
knots
gust
knots
rain 1hr
in
rain 24hr
in
rain mn
in
humidity
%
barometer
mb
20260906210818 68 45 2.6 7.0 0.00 0.00 0.00 70 1020.0
20260906205816 69 315 0.9 0.9 0.00 0.00 0.00 70 1020.1
20260906204837 69 293 0.9 1.7 0.00 0.00 0.00 67 1020.0
20260906203816 69 23 0.9 1.7 0.00 0.00 0.00 69 1020.0
20260906202816 69 45 0.9 2.6 0.00 0.00 0.00 68 1019.8
20260906201836 70 68 2.6 8.7 0.00 0.00 0.00 68 1019.8
20260906200816 70 68 2.6 4.3 0.00 0.00 0.00 66 1019.9
20260906195816 71 338 0.9 2.6 0.00 0.00 0.00 70 1019.9
20260906194816 70 270 2.6 4.3 0.00 0.00 0.00 70 1020.0
20260906193816 70 68 4.3 7.8 0.00 0.00 0.00 70 1020.1
20260906192816 71 338 1.7 3.5 0.00 0.00 0.00 70 1019.9
20260906191816 70 45 1.7 3.5 0.00 0.00 0.00 71 1020.0
20260906190815 70 45 2.6 5.2 0.00 0.00 0.00 71 1019.9
20260906185816 71 68 3.5 6.1 0.00 0.00 0.00 67 1019.9
20260906184815 71 45 1.7 3.5 0.00 0.00 0.00 70 1020.0
20260906183816 70 68 4.3 8.7 0.00 0.00 0.00 70 1019.9
20260906182815 70 23 2.6 3.5 0.00 0.00 0.00 72 1020.0
20260906181815 72 90 0.9 2.6 0.00 0.00 0.00 73 1020.0
20260906180815 70 45 1.7 3.5 0.00 0.00 0.00 73 1020.1
20260906175815 71 68 1.7 3.5 0.00 0.00 0.00 74 1020.0
20260906174815 69 315 1.7 1.7 0.00 0.00 0.00 76 1020.0
20260906173815 70 45 1.7 3.5 0.00 0.00 0.00 74 1020.1
20260906172815 71 45 1.7 3.5 0.00 0.00 0.00 73 1020.0
20260906171815 71 23 1.7 4.3 0.00 0.00 0.00 73 1020.1
20260906170815 70 68 3.5 7.8 0.00 0.00 0.00 73 1020.0
20260906165815 71 68 3.5 7.0 0.00 0.00 0.00 71 1019.9
20260906164815 70 0.0 0.9 0.00 0.00 0.00 71 1019.9
20260906163815 70 113 1.7 3.5 0.00 0.00 0.00 72 1019.8
20260906162815 71 0 2.6 5.2 0.00 0.00 0.00 72 1019.8
20260906161815 69 135 3.5 7.8 0.00 0.00 0.00 76 1019.8
20260906160816 68 23 3.5 8.7 0.00 0.00 0.00 74 1019.9
20260906155815 68 45 2.6 3.5 0.00 0.00 0.00 75 1019.8
20260906154815 71 45 1.7 7.8 0.00 0.00 0.00 76 1019.8
20260906153815 71 45 2.6 5.2 0.00 0.00 0.00 74 1019.7
20260906152815 71 68 3.5 7.8 0.00 0.00 0.00 75 1019.5
20260906151835 72 45 2.6 5.2 0.00 0.00 0.00 75 1019.5
20260906150835 71 45 4.3 6.1 0.00 0.00 0.00 77 1019.6
20260906145815 69 68 3.5 6.1 0.00 0.00 0.00 78 1019.6
20260906144815 69 45 4.3 9.6 0.00 0.00 0.00 77 1019.5
20260906143815 69 68 4.3 8.7 0.00 0.00 0.00 79 1019.5
20260906142815 68 68 0.9 3.5 0.00 0.00 0.00 79 1019.5
20260906141815 68 23 1.7 3.5 0.00 0.00 0.00 79 1019.5
20260906140815 67 68 1.7 5.2 0.00 0.00 0.00 80 1019.2
20260906135815 67 90 0.9 1.7 0.00 0.00 0.00 83 1019.0
20260906134815 67 68 1.7 3.5 0.00 0.00 0.00 83 1019.0
20260906133815 67 0.0 1.7 0.00 0.00 0.00 85 1019.0
20260906132815 67 68 1.7 4.3 0.00 0.00 0.00 85 1019.0
20260906131815 67 0.0 0.9 0.00 0.00 0.00 86 1019.0
20260906130815 67 68 2.6 4.3 0.00 0.00 0.00 86 1018.8
20260906125815 67 90 0.9 1.7 0.00 0.00 0.00 86 1018.8
20260906124815 67 45 1.7 4.3 0.00 0.00 0.00 88 1018.8
20260906123817 67 68 2.6 5.2 0.00 0.00 0.00 91 1018.5
20260906122817 66 45 0.9 1.7 0.00 0.00 0.00 93 1018.6
20260906121816 65 45 2.6 3.5 0.00 0.00 0.00 95 1018.5
20260906120817 65 23 3.5 5.2 0.00 0.00 0.00 96 1018.4
20260906115817 65 68 1.7 4.3 0.00 0.00 0.00 96 1018.3
20260906114837 62 0.0 0.9 0.00 0.00 0.00 96 1018.0
20260906113836 61 0.0 0.0 0.00 0.00 0.00 96 1017.8
20260906112816 61 0.0 0.0 0.00 0.00 0.00 96 1017.7
20260906111837 61 0.0 0.0 0.00 0.00 0.00 96 1017.7
20260906111754 60 0.0 0.0 0.00 0.00 0.00 96 1017.8